Change the Weather History Date:

Wednesday, December 25, 2013

  Actual Average Record
Temperature  
Mean Temperature 0 °F 14 °F  
Max Temperature 12 °F 23 °F 48 °F (1964)
Min Temperature -12 °F 6 °F -26 °F (1975)
Degree Days  
Heating Degree Days 65 50  
Month to date heating degree days 1261 1139  
Since 1 July heating degree days 3217 3284  
Cooling Degree Days 0 0  
Month to date cooling degree days 0 0  
Year to date cooling degree days 192 180  
Moisture  
Dew Point -1 °F    
Average Humidity 74    
Maximum Humidity 91    
Minimum Humidity 57    
Precipitation  
Precipitation T in 0.10 in 1.51 in (1979)
Month to date precipitation 3.06 2.71  
Year to date precipitation 49.64 37.93  
Snow  
Snow 0.10 in 0.80 in 8.70 in (1997)
Month to date snowfall 35.8 18.0  
Since 1 July snowfall 45.9 30.2  
Snow Depth 15.00 in    
Sea Level Pressure  
Sea Level Pressure 30.31 in    
Wind  
Wind Speed 8 mph (NW)    
Max Wind Speed 20 mph    
Max Gust Speed 25 mph    
Visibility 7 miles    
Events Snow    
T = Trace of Precipitation, MM = Missing Value Source: NWS Daily Summary

Daily Weather History Graph

Daily Weather History Graph

Search for Another Location

Airport or City:

Trip Planner

Search our weather history database for the weather conditions in past years. The results will help you decide how hot, cold, wet, or windy it might be!

Date:

Astronomy

Dec. 25, 2013 Rise Set
Actual Time 7:16 AM EST 3:48 PM EST
Civil Twilight 6:40 AM EST 4:23 PM EST
Nautical Twilight 6:02 AM EST 5:02 PM EST
Astronomical Twilight 5:25 AM EST 5:39 PM EST
Moon No Moon Rise 11:17 AM EST (12/25)
Length of Visible Light 9h 43m
Length of Day
8h 32m
Waning Gibbous, 49% of the Moon is Illuminated
Dec 25
Waning Gibbous
Jan 1
New
Jan 7
First Quarter
Jan 15
Full
Jan 24
Last Quarter

Hourly Weather History & Observations

Time (EST) Temp. Windchill Dew Point Humidity Pressure Visibility Wind Dir Wind Speed Gust Speed Precip Events Conditions
12:08 AM 12.0 °F -3.4 °F 7.0 °F 80% 30.02 in 3.0 mi NNW 13.8 mph - 0.00 in Snow Light Snow
12:47 AM 12.0 °F -3.4 °F 7.0 °F 80% 30.02 in 2.5 mi NNW 13.8 mph - 0.00 in Snow Light Snow
12:54 AM 12.0 °F -3.4 °F 7.0 °F 80% 30.07 in 2.5 mi NNW 13.8 mph - 0.00 in Snow Light Snow
1:11 AM 12.0 °F -2.7 °F 7.0 °F 80% 30.03 in 1.8 mi NNW 12.7 mph - 0.00 in Snow Light Snow
1:32 AM 12.0 °F -2.7 °F 7.0 °F 80% 30.04 in 2.0 mi NNW 12.7 mph - 0.00 in Snow Light Snow
1:54 AM 12.0 °F -4.0 °F 7.0 °F 80% 30.11 in 2.0 mi NNW 15.0 mph - 0.00 in Snow Light Snow
2:21 AM 12.0 °F -3.4 °F 7.0 °F 80% 30.07 in 2.5 mi NNW 13.8 mph - 0.00 in Snow Light Snow
2:39 AM 10.9 °F -6.5 °F 6.1 °F 81% 30.08 in 3.0 mi NNW 17.3 mph - 0.00 in Snow Light Snow
2:52 AM 10.4 °F -6.6 °F 6.8 °F 85% 30.08 in 2.5 mi NNW 16.1 mph - 0.00 in Snow Light Snow
2:54 AM 10.9 °F -7.0 °F 6.1 °F 81% 30.13 in 2.5 mi NNW 18.4 mph - 0.00 in Snow Light Snow
3:21 AM 10.0 °F -8.1 °F 5.0 °F 80% 30.10 in 3.0 mi NNW 18.4 mph - 0.00 in Snow Light Snow
3:54 AM 9.0 °F -9.0 °F 3.0 °F 77% 30.17 in 5.0 mi NNW 17.3 mph - 0.00 in Snow Light Snow
4:54 AM 7.0 °F -10.4 °F 1.0 °F 77% 30.21 in 10.0 mi NNW 15.0 mph - 0.00 in   Overcast
5:54 AM 5.0 °F -12.3 °F -0.0 °F 80% 30.26 in 8.0 mi NW 13.8 mph - 0.00 in   Overcast
6:54 AM 3.9 °F -13.7 °F -0.9 °F 80% 30.30 in 9.0 mi NW 13.8 mph - 0.00 in   Overcast
7:54 AM 3.0 °F -13.3 °F -2.0 °F 80% 30.35 in 10.0 mi NW 11.5 mph - 0.00 in   Clear
8:54 AM 3.0 °F -11.5 °F -2.9 °F 76% 30.38 in 10.0 mi NNW 9.2 mph - N/A   Clear
9:54 AM 5.0 °F -13.0 °F -2.9 °F 70% 30.41 in 10.0 mi NW 15.0 mph 21.9 mph N/A   Clear
10:54 AM 6.1 °F -7.8 °F -2.0 °F 69% 30.40 in 10.0 mi NW 9.2 mph - N/A   Clear
11:54 AM 8.1 °F -6.2 °F -2.9 °F 61% 30.41 in 10.0 mi NW 10.4 mph - N/A   Clear
12:54 PM 9.0 °F -4.2 °F -2.9 °F 59% 30.40 in 10.0 mi NNW 9.2 mph - N/A   Clear
1:54 PM 8.1 °F -3.2 °F -4.0 °F 58% 30.43 in 10.0 mi NW 6.9 mph - N/A   Clear
2:54 PM 7.0 °F -6.6 °F -2.9 °F 64% 30.44 in 10.0 mi NNW 9.2 mph - N/A   Clear
3:54 PM 6.1 °F - -2.0 °F 69% 30.46 in 10.0 mi Calm Calm - N/A   Clear
4:54 PM 3.9 °F -5.3 °F -2.0 °F 76% 30.48 in 10.0 mi WNW 4.6 mph - N/A   Clear
5:54 PM 3.0 °F -9.3 °F -2.9 °F 76% 30.49 in 10.0 mi NW 6.9 mph - N/A   Clear
6:54 PM -2.9 °F - -6.0 °F 87% 30.51 in 10.0 mi Calm Calm - N/A   Clear
7:54 PM -5.1 °F -13.6 °F -8.0 °F 87% 30.53 in 10.0 mi SSW 3.5 mph - N/A   Clear
8:54 PM -6.0 °F - -9.0 °F 87% 30.53 in 10.0 mi Calm Calm - N/A   Clear
9:54 PM -8.0 °F - -13.0 °F 79% 30.52 in 9.0 mi Calm Calm - N/A   Clear
10:54 PM -11.0 °F - -16.1 °F 78% 30.51 in 10.0 mi Calm Calm - N/A   Clear
11:54 PM -9.0 °F - -14.1 °F 79% 30.50 in 6.0 mi Calm Calm - N/A   Haze